{"data":{"norad_id":59168,"epoch":"2026-09-20T21:07:09.198048Z","epoch_age_seconds":126040,"freshness":"FRESH","line1":"1 59168U 24044S   26263.87996757  .00006680  00000+0  25220-3 0  9993","line2":"2 59168  43.0019  85.0148 0000759 264.3383  95.7382 15.27560217143440","mean_motion":15.27560217,"eccentricity":7.59e-5,"inclination_deg":43.0019,"raan_deg":85.0148,"arg_perigee_deg":264.3383,"mean_anomaly_deg":95.7382,"bstar":0.0002522,"rev_number":14344,"period_min":94.267969535632,"perigee_km":482.587565577,"apogee_km":483.62910261871,"semimajor_km":6861.2453340979,"source":"CELESTRAK","updated_at":"2026-09-21T09:00:34.059629Z"}}